Weather History for Springfield, MO

Change the Weather History Date:

Monday, December 10, 2012

  Actual Average Record
Temperature  
Mean Temperature 25 °F 36 °F  
Max Temperature 32 °F 46 °F 71 °F (1996)
Min Temperature 18 °F 26 °F -5 °F (1995)
Degree Days  
Heating Degree Days 40 29  
Month to date heating degree days 150 277  
Since 1 July heating degree days 1067 1156  
Cooling Degree Days 0 0  
Month to date cooling degree days 2 0  
Year to date cooling degree days 1766 1389  
Moisture  
Dew Point 17 °F    
Average Humidity 70    
Maximum Humidity 85    
Minimum Humidity 56    
Precipitation  
Precipitation 0.00 in 0.11 in 2.56 in (1897)
Month to date precipitation 0.77 1.13  
Year to date precipitation 30.61 43.66  
Snow  
Snow 0.00 in - - ()
Month to date snowfall 0.0  
Since 1 July snowfall 0.0  
Snow Depth 0.00 in    
Sea Level Pressure  
Sea Level Pressure 30.05 in    
Wind  
Wind Speed 9 mph (WNW)    
Max Wind Speed 18 mph    
Max Gust Speed 23 mph    
Visibility 10 miles    
Events      
T = Trace of Precipitation, MM = Missing Value Source: NWS Daily Summary

Daily Weather History Graph

Daily Weather History Graph

Search for Another Location

Airport:

Trip Planner

Search our weather history database for the weather conditions in past years. The results will help you decide how hot, cold, wet, or windy it might be!

Date:

Astronomy

Dec. 10, 2012 Rise Set
Actual Time 7:16 AM CST 4:56 PM CST
Civil Twilight 6:47 AM CST 5:25 PM CST
Nautical Twilight 6:15 AM CST 5:57 PM CST
Astronomical Twilight 5:43 AM CST 6:29 PM CST
Moon 4:03 AM CST (12/10) 2:44 PM CST (12/10)
Length of Visible Light 10h 37m
Length of Day
9h 39m
Waning Crescent, 10% of the Moon is Illuminated
Dec 10
Waning Crescent
Dec 13
New
Dec 19
First Quarter
Dec 28
Full
Jan 4
Last Quarter

Hourly Weather History & Observations

Time (CST) Temp. Windchill Dew Point Humidity Pressure Visibility Wind Dir Wind Speed Gust Speed Precip Events Conditions
12:52 AM 26.1 °F 16.8 °F 17.1 °F 69% 30.02 in 10.0 mi NW 9.2 mph - N/A   Clear
1:52 AM 25.0 °F 13.1 °F 17.1 °F 72% 29.99 in 10.0 mi NW 13.8 mph - N/A   Clear
2:52 AM 24.1 °F 13.1 °F 16.0 °F 71% 30.01 in 10.0 mi NW 11.5 mph - N/A   Clear
3:52 AM 23.0 °F 10.1 °F 15.1 °F 72% 29.99 in 10.0 mi NW 15.0 mph - N/A   Partly Cloudy
4:52 AM 21.9 °F 10.4 °F 14.0 °F 72% 30.01 in 10.0 mi WNW 11.5 mph 19.6 mph N/A   Overcast
5:50 AM 21.2 °F 8.9 °F 14.0 °F 74% 29.99 in 10.0 mi WNW 12.7 mph - N/A   Overcast
5:52 AM 21.9 °F 8.7 °F 12.9 °F 68% 30.02 in 10.0 mi NW 15.0 mph 19.6 mph N/A   Overcast
6:52 AM 21.9 °F 9.8 °F 14.0 °F 72% 30.05 in 10.0 mi NW 12.7 mph - N/A   Overcast
7:52 AM 21.9 °F 11.0 °F 14.0 °F 72% 30.07 in 10.0 mi WNW 10.4 mph - N/A   Overcast
8:52 AM 23.0 °F 11.7 °F 15.1 °F 72% 30.08 in 10.0 mi NW 11.5 mph - N/A   Overcast
9:52 AM 23.0 °F 11.7 °F 16.0 °F 74% 30.08 in 10.0 mi WNW 11.5 mph - N/A   Overcast
10:52 AM 25.0 °F 15.5 °F 17.1 °F 72% 30.07 in 10.0 mi WNW 9.2 mph - N/A   Overcast
11:52 AM 27.0 °F 16.1 °F 18.0 °F 69% 30.07 in 10.0 mi WNW 12.7 mph 17.3 mph N/A   Overcast
12:52 PM 28.0 °F 18.1 °F 18.0 °F 66% 30.06 in 10.0 mi NW 11.5 mph - N/A   Overcast
1:52 PM 32.0 °F 24.2 °F 19.9 °F 61% 30.03 in 10.0 mi NW 9.2 mph - N/A   Scattered Clouds
2:00 PM 32.0 °F 22.5 °F 19.4 °F 60% 29.99 in 10.0 mi NNW 12.7 mph - N/A   Mostly Cloudy
2:14 PM 32.0 °F 23.6 °F 19.4 °F 60% 29.99 in 10.0 mi NW 10.4 mph - N/A   Scattered Clouds
2:52 PM 32.0 °F 24.2 °F 19.9 °F 61% 30.04 in 10.0 mi NW 9.2 mph - N/A   Partly Cloudy
3:52 PM 30.9 °F 22.8 °F 19.0 °F 61% 30.04 in 10.0 mi WNW 9.2 mph - N/A   Clear
4:52 PM 28.0 °F 22.8 °F 18.0 °F 66% 30.05 in 10.0 mi NW 4.6 mph - N/A   Clear
5:52 PM 27.0 °F 23.0 °F 18.0 °F 69% 30.07 in 10.0 mi WNW 3.5 mph - N/A   Clear
6:52 PM 26.1 °F 20.5 °F 18.0 °F 71% 30.08 in 10.0 mi WNW 4.6 mph - N/A   Clear
7:52 PM 21.9 °F 17.2 °F 16.0 °F 78% 30.08 in 10.0 mi WSW 3.5 mph - N/A   Clear
8:52 PM 21.9 °F - 16.0 °F 78% 30.09 in 10.0 mi Calm Calm - N/A   Clear
9:52 PM 19.0 °F 13.9 °F 14.0 °F 81% 30.09 in 10.0 mi WSW 3.5 mph - N/A   Clear
10:52 PM 19.0 °F 11.1 °F 15.1 °F 85% 30.10 in 10.0 mi SSW 5.8 mph - N/A   Clear
11:52 PM 19.9 °F 13.4 °F 16.0 °F 85% 30.11 in 10.0 mi SW 4.6 mph - N/A   Clear